GW7078 Weather Reports


time (UTC)temp
C
wind
direction
speed
KPH
gust
KPH
rain 1hr
cm
rain 24hr
cm
rain mn
cm
humidity
%
barometer
mb
20260502164007 7 344 3.2 9.7 0.00 0.00 0.00 41 1017.8
20260502163506 7 26 3.2 6.4 0.00 0.00 0.00 41 1017.8
20260502163020 7 267 0.0 8.0 0.00 0.00 0.00 43 1017.9
20260502162514 7 329 1.6 9.7 0.00 0.00 0.00 46 1017.8
20260502162010 7 350 1.6 9.7 0.00 0.00 0.00 42 1017.8
20260502161520 7 273 1.6 6.4 0.00 0.00 0.00 43 1017.8
20260502161009 7 317 3.2 6.4 0.00 0.00 0.00 41 1017.9
20260502160509 7 30 3.2 6.4 0.00 0.00 0.00 42 1017.9
20260502152009 6 21 4.8 11.3 0.00 0.00 0.00 44 1017.7
20260502151516 6 346 1.6 8.0 0.00 0.00 0.00 45 1017.8
20260502151007 6 313 1.6 9.7 0.00 0.00 0.00 45 1017.8
20260502150510 6 256 3.2 12.9 0.00 0.00 0.00 45 1017.8
20260502130508 5 5 0.0 6.4 0.00 0.00 0.00 67 1017.9
20260502123512 5 270 3.2 6.4 0.00 0.00 0.00 67 1017.9
20260502123025 6 261 1.6 3.2 0.00 0.00 0.00 67 1017.8
20260502122509 5 236 0.0 3.2 0.00 0.00 0.00 69 1017.9
20260502122003 5 291 1.6 3.2 0.00 0.00 0.00 71 1017.8
20260502121512 5 296 0.0 3.2 0.00 0.00 0.00 72 1017.8
20260502121006 5 297 0.0 3.2 0.00 0.00 0.00 73 1017.8
20260502120507 4 324 0.0 3.2 0.00 0.00 0.00 74 1017.8
20260502115508 3 100 0.0 3.2 0.00 0.00 0.00 80 1017.8
20260502115009 3 100 0.0 0.0 0.00 0.00 0.00 83 1017.8
20260502114520 2 100 0.0 0.0 0.00 0.00 0.00 84 1017.7
20260502114012 2 100 0.0 0.0 0.00 0.00 0.00 85 1017.7
20260502113508 1 100 0.0 0.0 0.00 0.00 0.00 85 1017.7
20260502113024 1 100 0.0 0.0 0.00 0.00 0.00 85 1017.6
20260502112508 1 100 0.0 0.0 0.00 0.00 0.00 85 1017.6
20260502112014 1 100 0.0 0.0 0.00 0.00 0.00 85 1017.5
20260502111525 1 100 0.0 0.0 0.00 0.00 0.00 85 1017.5
20260502111005 1 100 0.0 0.0 0.00 0.00 0.00 84 1017.4
20260502110504 1 100 0.0 0.0 0.00 0.00 0.00 84 1017.4
20260502110012 1 100 0.0 0.0 0.00 0.00 0.00 84 1017.4
20260502105509 1 100 0.0 0.0 0.00 0.00 0.00 83 1017.5
20260502105011 1 100 0.0 0.0 0.00 0.00 0.00 83 1017.3
20260502104518 1 100 0.0 0.0 0.00 0.00 0.00 82 1017.3
20260502104006 1 100 0.0 0.0 0.00 0.00 0.00 82 1017.2
20260502103510 1 100 0.0 0.0 0.00 0.00 0.00 81 1017.3
20260502103024 1 100 0.0 0.0 0.00 0.00 0.00 81 1017.3
20260502102510 1 100 0.0 0.0 0.00 0.00 0.00 81 1017.3
20260502102016 2 100 0.0 0.0 0.00 0.00 0.00 81 1017.2
20260502101523 2 100 0.0 0.0 0.00 0.00 0.00 81 1017.2
20260502101008 2 100 0.0 0.0 0.00 0.00 0.00 81 1017.3
20260502100505 2 100 0.0 0.0 0.00 0.00 0.00 81 1017.3
20260502091504 2 100 0.0 0.0 0.00 0.00 0.00 79 1017.1
20260502091003 2 100 0.0 0.0 0.00 0.00 0.00 79 1017.0
20260502090503 2 100 0.0 0.0 0.00 0.00 0.00 79 1017.0
20260502071520 3 87 0.0 3.2 0.00 0.00 0.00 74 1016.7
20260502071009 3 87 0.0 3.2 0.00 0.00 0.00 74 1016.8
20260502070508 3 87 0.0 3.2 0.00 0.00 0.00 74 1016.9
20260502070032 3 87 0.0 3.2 0.00 0.00 0.00 73 1016.8
20260502065509 3 87 0.0 3.2 0.00 0.00 0.00 73 1016.7
20260502065005 3 87 0.0 3.2 0.00 0.00 0.00 74 1016.8
20260502064510 3 88 0.0 1.6 0.00 0.00 0.00 73 1017.0
20260502064003 3 88 0.0 3.2 0.00 0.00 0.00 73 1017.1
20260502063507 3 88 0.0 3.2 0.00 0.00 0.00 73 1017.1
20260502063014 3 89 0.0 3.2 0.00 0.00 0.00 73 1017.1
20260502062508 3 89 0.0 3.2 0.00 0.00 0.00 74 1017.1
20260502062010 3 89 0.0 3.2 0.00 0.00 0.00 73 1017.1
20260502061520 3 96 0.0 3.2 0.00 0.00 0.00 73 1017.1
20260502061006 3 175 0.0 3.2 0.00 0.00 0.00 74 1017.2
20260502060511 3 175 0.0 3.2 0.00 0.00 0.00 74 1017.2
20260502060022 3 175 0.0 3.2 0.00 0.00 0.00 75 1017.2
20260502055510 3 175 0.0 3.2 0.00 0.00 0.00 78 1017.2
20260502055009 3 175 0.0 1.6 0.00 0.00 0.00 78 1017.2
20260502054525 3 175 0.0 0.0 0.00 0.00 0.00 77 1017.3
20260502054006 3 175 0.0 0.0 0.00 0.00 0.00 77 1017.3
20260502053504 3 175 0.0 3.2 0.00 0.00 0.00 76 1017.3
20260502053010 3 175 0.0 3.2 0.00 0.00 0.00 75 1017.3
20260502052512 3 175 0.0 3.2 0.00 0.00 0.00 75 1017.4
20260502052007 3 175 0.0 3.2 0.00 0.00 0.00 73 1017.3
20260502051523 3 175 0.0 3.2 0.00 0.00 0.00 73 1017.2
20260502051007 3 175 0.0 3.2 0.00 0.00 0.00 72 1017.1
20260502050507 3 175 0.0 3.2 0.00 0.00 0.00 70 1017.2
20260502050021 3 175 0.0 3.2 0.00 0.00 0.00 70 1017.1
20260502045507 3 171 1.6 4.8 0.00 0.00 0.00 70 1017.1
20260502045011 3 67 0.0 4.8 0.00 0.00 0.00 71 1017.1
20260502044524 3 72 0.0 4.8 0.00 0.00 0.00 71 1017.0
20260502044010 3 82 0.0 3.2 0.00 0.00 0.00 70 1017.0
20260502043512 3 67 0.0 3.2 0.00 0.00 0.00 70 1016.9
20260502043027 3 63 0.0 3.2 0.00 0.00 0.00 69 1016.9
20260502042504 3 78 0.0 3.2 0.00 0.00 0.00 70 1016.9
20260502042007 3 95 0.0 9.7 0.00 0.00 0.00 69 1016.9
20260502041514 3 95 3.2 9.7 0.00 0.00 0.00 68 1016.9
20260502041007 3 24 1.6 6.4 0.00 0.00 0.00 68 1016.9
20260502040506 3 40 1.6 6.4 0.00 0.00 0.00 69 1017.0
20260502040032 3 65 1.6 6.4 0.00 0.00 0.00 68 1016.9
20260502035509 3 25 3.2 6.4 0.00 0.00 0.00 68 1016.9
20260502035014 3 40 3.2 8.0 0.00 0.00 0.00 68 1016.7
20260502034524 3 5 1.6 11.3 0.00 0.00 0.00 68 1016.7
20260502034008 4 125 3.2 11.3 0.00 0.00 0.00 68 1016.6
20260502033508 4 43 0.0 9.7 0.00 0.00 0.00 68 1016.5
20260502033025 4 31 3.2 8.0 0.00 0.00 0.00 67 1016.5
20260502032509 5 45 1.6 9.7 0.00 0.00 0.00 67 1016.6
20260502032012 5 41 3.2 9.7 0.00 0.00 0.00 67 1016.5
20260502031511 5 102 1.6 9.7 0.00 0.00 0.00 65 1016.5
20260502031006 5 28 3.2 9.7 0.00 0.00 0.00 64 1016.6
20260502030510 6 37 3.2 8.0 0.00 0.00 0.00 63 1016.4
20260502030017 6 51 1.6 6.4 0.00 0.00 0.00 61 1016.3
20260502025510 6 68 1.6 6.4 0.00 0.00 0.00 55 1016.1
20260502025008 6 226 1.6 4.8 0.00 0.00 0.00 56 1016.0
20260502024535 6 297 0.0 3.2 0.00 0.00 0.00 56 1016.0
20260502024010 6 352 0.0 3.2 0.00 0.00 0.00 57 1016.0
20260502023510 6 352 0.0 4.8 0.00 0.00 0.00 56 1016.0
20260502023026 6 239 1.6 4.8 0.00 0.00 0.00 57 1016.0
20260502022511 6 338 1.6 4.8 0.00 0.00 0.00 57 1016.0
20260502022010 6 17 0.0 3.2 0.00 0.00 0.00 58 1016.0
20260502021530 6 329 0.0 3.2 0.00 0.00 0.00 57 1015.9
20260502021008 6 327 0.0 4.8 0.00 0.00 0.00 57 1015.9
20260502020503 6 327 0.0 4.8 0.00 0.00 0.00 56 1015.9
20260502020012 6 331 1.6 4.8 0.00 0.00 0.00 57 1015.8
20260502015510 6 275 1.6 4.8 0.00 0.00 0.00 58 1015.8
20260502015010 6 306 0.0 4.8 0.00 0.00 0.00 56 1015.8
20260502014529 6 306 0.0 3.2 0.00 0.00 0.00 57 1015.7
20260502014009 6 318 0.0 3.2 0.00 0.00 0.00 57 1015.7
20260502013508 6 289 0.0 3.2 0.00 0.00 0.00 56 1015.7
20260502013022 6 224 0.0 1.6 0.00 0.00 0.00 57 1015.6
20260502012507 6 224 0.0 3.2 0.00 0.00 0.00 58 1015.5
20260502012015 7 223 0.0 3.2 0.00 0.00 0.00 56 1015.5
20260502011528 6 236 0.0 6.4 0.00 0.00 0.00 56 1015.5
20260502011007 7 258 3.2 6.4 0.00 0.00 0.00 57 1015.5
20260502010511 7 352 0.0 4.8 0.00 0.00 0.00 57 1015.5
20260502010029 7 266 1.6 3.2 0.00 0.00 0.00 57 1015.5
20260502005505 7 313 0.0 3.2 0.00 0.00 0.00 58 1015.5
20260502005007 7 318 0.0 3.2 0.00 0.00 0.00 58 1015.4
20260502004516 7 328 0.0 3.2 0.00 0.00 0.00 58 1015.3
20260502004010 7 346 0.0 3.2 0.00 0.00 0.00 58 1015.1
20260502003513 7 347 0.0 3.2 0.00 0.00 0.00 57 1015.2
20260502003026 7 352 0.0 3.2 0.00 0.00 0.00 58 1015.2
20260502002506 7 300 0.0 6.4 0.00 0.00 0.00 57 1015.2
20260502002010 7 326 0.0 6.4 0.00 0.00 0.00 58 1015.2
20260502001523 7 341 1.6 3.2 0.00 0.00 0.00 57 1015.1
20260502001008 7 298 0.0 6.4 0.00 0.00 0.00 58 1015.1
20260502000515 7 323 1.6 6.4 0.00 0.00 0.00 58 1015.0
20260502000025 7 313 0.0 3.2 0.00 0.00 0.00 59 1014.9
20260501235514 7 333 1.6 3.2 0.00 0.00 0.00 60 1014.9
20260501235010 7 288 0.0 6.4 0.00 0.00 0.00 59 1014.9
20260501234513 7 299 1.6 6.4 0.00 0.00 0.00 58 1014.9
20260501234008 7 17 0.0 4.8 0.00 0.00 0.00 61 1014.8
20260501233505 7 20 3.2 4.8 0.00 0.00 0.00 59 1014.7
20260501233017 7 322 0.0 4.8 0.00 0.00 0.00 60 1014.7
20260501232508 7 325 0.0 4.8 0.00 0.00 0.00 59 1014.7
20260501232012 7 9 3.2 4.8 0.00 0.00 0.00 60 1014.8
20260501231523 7 219 1.6 8.0 0.00 0.00 0.00 63 1014.8
20260501231015 7 288 1.6 8.0 0.00 0.00 0.00 63 1014.8
20260501230512 7 240 0.0 6.4 0.00 0.00 0.00 64 1014.8
20260501230026 7 235 1.6 6.4 0.00 0.00 0.00 61 1014.8
20260501225515 7 326 1.6 4.8 0.00 0.00 0.00 56 1014.8
20260501225013 7 264 0.0 3.2 0.00 0.00 0.00 56 1014.7
20260501224534 7 352 0.0 3.2 0.00 0.00 0.00 56 1014.7
20260501224016 7 322 1.6 6.4 0.00 0.00 0.00 56 1014.7
20260501223509 8 334 1.6 8.0 0.00 0.00 0.00 55 1014.7
20260501223014 8 338 1.6 12.9 0.00 0.00 0.00 55 1014.7
20260501222507 8 346 3.2 12.9 0.00 0.00 0.00 52 1014.6
20260501222010 8 300 0.0 4.8 0.00 0.00 0.00 51 1014.5
20260501221524 8 316 1.6 6.4 0.00 0.00 0.00 49 1014.5
20260501221014 8 26 1.6 6.4 0.00 0.00 0.00 50 1014.4
20260501220510 8 360 3.2 16.1 0.00 0.00 0.00 49 1014.3
20260501220024 9 342 4.8 14.5 0.00 0.00 0.00 48 1014.3
20260501215508 9 44 1.6 4.8 0.00 0.00 0.00 48 1014.3
20260501215008 9 248 1.6 6.4 0.00 0.00 0.00 47 1014.2
20260501214509 9 346 3.2 6.4 0.00 0.00 0.00 48 1014.3
20260501214005 9 253 1.6 6.4 0.00 0.00 0.00 47 1014.2
20260501213505 9 310 1.6 6.4 0.00 0.00 0.00 49 1014.2
20260501213014 9 296 1.6 6.4 0.00 0.00 0.00 49 1014.1
20260501212506 9 360 1.6 6.4 0.00 0.00 0.00 48 1014.1
20260501212006 9 300 3.2 6.4 0.00 0.00 0.00 51 1014.0
20260501211518 9 277 1.6 9.7 0.00 0.00 0.00 49 1013.9
20260501211006 9 11 1.6 9.7 0.00 0.00 0.00 49 1013.9
20260501210508 9 255 3.2 8.0 0.00 0.00 0.00 49 1013.9
20260501210023 9 26 1.6 8.0 0.00 0.00 0.00 49 1013.9
20260501205511 9 346 1.6 8.0 0.00 0.00 0.00 48 1013.8
20260501205010 10 326 1.6 9.7 0.00 0.00 0.00 47 1013.8
20260501204526 10 310 1.6 9.7 0.00 0.00 0.00 48 1013.8
20260501204003 10 21 4.8 8.0 0.00 0.00 0.00 48 1013.8
20260501203503 9 342 1.6 8.0 0.00 0.00 0.00 48 1013.8
20260501203030 9 15 1.6 8.0 0.00 0.00 0.00 47 1013.9
20260501202506 9 294 3.2 4.8 0.00 0.00 0.00 47 1013.9
20260501202009 9 340 0.0 6.4 0.00 0.00 0.00 50 1013.9
20260501201515 9 42 3.2 8.0 0.00 0.00 0.00 48 1013.8
20260501201006 9 347 3.2 8.0 0.00 0.00 0.00 46 1013.8
20260501200513 10 300 1.6 6.4 0.00 0.00 0.00 47 1013.8
20260501200021 10 49 1.6 6.4 0.00 0.00 0.00 49 1013.7
20260501195509 10 317 0.0 9.7 0.00 0.00 0.00 47 1013.8
20260501195012 10 54 3.2 9.7 0.00 0.00 0.00 48 1013.8
20260501194524 10 123 1.6 8.0 0.00 0.00 0.00 48 1013.7
20260501194013 10 5 3.2 8.0 0.00 0.00 0.00 46 1013.7
20260501193509 10 17 1.6 6.4 0.00 0.00 0.00 48 1013.7
20260501193009 10 340 3.2 6.4 0.00 0.00 0.00 49 1013.6
20260501192507 9 22 1.6 8.0 0.00 0.00 0.00 49 1013.6
20260501192004 9 34 1.6 9.7 0.00 0.00 0.00 48 1013.7
20260501191515 9 26 1.6 9.7 0.00 0.00 0.00 49 1013.7
20260501191007 9 331 1.6 8.0 0.00 0.00 0.00 49 1013.6
20260501190507 9 352 3.2 9.7 0.00 0.00 0.00 49 1013.6
20260501190020 9 94 1.6 9.7 0.00 0.00 0.00 47 1013.4
20260501185509 10 268 3.2 12.9 0.00 0.00 0.00 48 1013.4
20260501185010 10 5 4.8 12.9 0.00 0.00 0.00 48 1013.4
20260501184548 9 38 3.2 6.4 0.00 0.00 0.00 46 1013.4
20260501184010 9 305 1.6 6.4 0.00 0.00 0.00 47 1013.3
20260501183513 9 339 1.6 9.7 0.00 0.00 0.00 46 1013.3
20260501183028 9 344 3.2 9.7 0.00 0.00 0.00 46 1013.3
20260501182510 9 269 1.6 8.0 0.00 0.00 0.00 46 1013.3
20260501182007 9 350 1.6 8.0 0.00 0.00 0.00 45 1013.3
20260501181512 9 352 1.6 4.8 0.00 0.00 0.00 46 1013.3
20260501181004 9 90 1.6 6.4 0.00 0.00 0.00 48 1013.3
20260501180507 9 36 3.2 8.0 0.00 0.00 0.00 48 1013.3
20260501180022 9 41 0.0 8.0 0.00 0.00 0.00 50 1013.2
20260501175511 9 342 1.6 8.0 0.00 0.00 0.00 49 1013.2
20260501175008 9 252 1.6 8.0 0.00 0.00 0.00 49 1013.2
20260501174523 8 239 1.6 4.8 0.00 0.00 0.00 50 1013.2
20260501174007 8 352 1.6 4.8 0.00 0.00 0.00 53 1013.2
20260501173510 8 335 1.6 9.7 0.00 0.00 0.00 51 1013.3
20260501173028 8 340 1.6 9.7 0.00 0.00 0.00 52 1013.3
20260501172507 8 10 1.6 8.0 0.00 0.00 0.00 53 1013.4
20260501172019 9 242 3.2 9.7 0.00 0.00 0.00 52 1013.3
20260501171528 9 87 3.2 9.7 0.00 0.00 0.00 51 1013.3
20260501171006 9 32 3.2 6.4 0.00 0.00 0.00 51 1013.3
20260501170507 9 24 1.6 4.8 0.00 0.00 0.00 52 1013.3
20260501170016 8 352 1.6 9.7 0.00 0.00 0.00 54 1013.3
20260501165509 8 334 1.6 9.7 0.00 0.00 0.00 54 1013.3
20260501165007 8 23 3.2 6.4 0.00 0.00 0.00 53 1013.2